Date String (YYYY-MM-DD hh:mm:ss) UTC,Instrument flags,Ambient pressure (hPa),Sample flow (lpm),Bypass flow (lpm),Sample temperature (°C),Ambient temperature (°C),ASC tube jacket temperature (°C),LED temperature (°C),Box temperature (°C),Sample RH (%),Span deviation,Mass concentration (μg/m³),Mass concentration (μg/m³),Mass concentration (μg/m³)
DateTimeUTC,F1_M11,P_M11,Q1_M11,Q2_M11,T1_M11,T2_M11,T3_M11,T4_M11,T5_M11,U1_M11,ZSPAN_M11,X2_M11,X0_M11,X1_M11
2022-03-12 18:00:00,,0826.0,5.01,0.00,23.2,22.3,00.0,32.2,24.9,10.8,0000.0,0001.00,0001.68,0000.66
2022-03-12 18:01:00,,0826.1,5.00,0.00,23.2,22.3,00.0,32.2,24.9,10.9,0000.0,0000.97,0001.59,0000.66
2022-03-12 18:02:00,,0826.0,4.99,0.00,23.2,22.3,00.0,32.2,24.9,11.3,0000.0,0000.97,0001.68,0000.66
2022-03-12 18:03:00,,0826.0,5.01,0.00,23.2,22.3,00.0,32.2,24.9,10.8,0000.0,0001.00,0001.79,0000.66
2022-03-12 18:04:00,,0826.0,4.99,0.00,23.2,22.2,00.0,32.2,24.9,11.0,0000.0,0000.99,0001.79,0000.66
2022-03-12 18:05:00,,0826.0,5.01,0.00,23.2,22.2,00.0,32.2,24.9,11.7,0000.0,0001.00,0001.81,0000.66
2022-03-12 18:06:00,,0825.8,4.99,0.00,23.2,22.3,00.0,32.2,25.0,11.1,0000.0,0001.03,0002.49,0000.65
2022-03-12 18:07:00,,0825.9,5.02,0.00,23.2,22.3,00.0,32.2,24.9,10.6,0000.0,0001.04,0003.10,0000.66
2022-03-12 18:08:00,,0825.9,5.00,0.00,23.2,22.3,00.0,32.2,24.9,11.3,0000.0,0001.05,0004.10,0000.66
2022-03-12 18:09:00,,0826.0,4.99,0.00,23.2,22.2,00.0,32.2,24.9,11.3,0000.0,0001.05,0004.19,0000.66
2022-03-12 18:10:00,,0826.0,5.01,0.00,23.2,22.2,00.0,32.2,24.9,11.5,0000.0,0001.08,0004.25,0000.66
2022-03-12 18:11:00,,0825.9,5.00,0.00,23.2,22.2,00.0,32.2,24.9,11.5,0000.0,0001.10,0004.32,0000.66
2022-03-12 18:12:00,,0825.8,4.99,0.00,23.3,22.2,00.0,32.2,24.9,10.9,0000.0,0001.15,0004.42,0000.66
2022-03-12 18:13:00,,0825.9,4.99,0.00,23.3,22.2,00.0,32.2,25.0,11.0,0000.0,0001.12,0004.29,0000.66
2022-03-12 18:14:00,,0825.8,5.01,0.00,23.3,22.3,00.0,32.2,25.0,11.3,0000.0,0001.11,0004.81,0000.66
2022-03-12 18:15:00,,0825.9,4.98,0.00,23.3,22.3,00.0,32.2,25.0,10.5,0000.0,0001.12,0005.48,0000.65
2022-03-12 18:16:00,,0826.0,5.01,0.00,23.3,22.3,00.0,32.2,25.0,10.7,0000.0,0001.12,0005.49,0000.64
2022-03-12 18:17:00,,0825.9,5.00,0.00,23.3,22.3,00.0,32.2,24.9,10.7,0000.0,0001.11,0004.88,0000.64
2022-03-12 18:18:00,,0825.9,4.99,0.00,23.3,22.3,00.0,32.2,25.0,10.4,0000.0,0001.11,0004.32,0000.65
2022-03-12 18:19:00,,0826.0,5.02,0.00,23.3,22.3,00.0,32.2,25.0,10.5,0000.0,0001.12,0003.36,0000.65
2022-03-12 18:20:00,,0826.0,5.00,0.00,23.2,22.3,00.0,32.2,24.9,10.7,0000.0,0001.14,0003.33,0000.65
2022-03-12 18:21:00,,0826.1,4.99,0.00,23.3,22.3,00.0,32.2,25.0,10.4,0000.0,0001.11,0003.28,0000.65
2022-03-12 18:22:00,,0826.0,5.00,0.00,23.3,22.3,00.0,32.2,25.0,10.7,0000.0,0001.11,0003.25,0000.65
2022-03-12 18:23:00,,0826.0,5.02,0.00,23.3,22.3,00.0,32.2,24.9,10.6,0000.0,0001.08,0003.27,0000.64
2022-03-12 18:24:00,,0826.0,4.99,0.00,23.3,22.2,00.0,32.2,24.9,10.8,0000.0,0001.11,0004.38,0000.63
2022-03-12 18:25:00,,0826.0,5.02,0.00,23.3,22.3,00.0,32.2,25.0,10.2,0000.0,0001.10,0003.74,0000.64
2022-03-12 18:26:00,,0825.9,4.98,0.00,23.3,22.2,00.0,32.2,25.0,10.3,0000.0,0001.10,0003.09,0000.64
2022-03-12 18:27:00,,0825.9,5.01,0.00,23.3,22.2,00.0,32.2,25.0,10.8,0000.0,0001.07,0003.02,0000.64
2022-03-12 18:28:00,,0825.8,4.99,0.00,23.3,22.2,00.0,32.2,25.0,10.6,0000.0,0001.06,0002.99,0000.64
2022-03-12 18:29:00,,0825.7,5.01,0.00,23.3,22.3,00.0,32.3,25.0,10.9,0000.0,0001.05,0002.84,0000.64
2022-03-12 18:30:00,,0825.7,4.98,0.00,23.3,22.3,00.0,32.3,25.0,10.5,0000.0,0001.02,0002.80,0000.64
2022-03-12 18:31:00,,0825.7,5.01,0.00,23.3,22.3,00.0,32.3,25.0,10.2,0000.0,0001.02,0002.81,0000.64
2022-03-12 18:32:00,,0825.7,4.98,0.00,23.3,22.3,00.0,32.3,25.0,10.1,0000.0,0001.06,0002.94,0000.64
2022-03-12 18:33:00,,0825.7,5.00,0.00,23.3,22.2,00.0,32.3,25.0,10.4,0000.0,0001.05,0002.96,0000.64
2022-03-12 18:34:00,,0825.7,4.99,0.00,23.3,22.3,00.0,32.3,25.0,10.1,0000.0,0001.01,0002.77,0000.64
2022-03-12 18:35:00,,0825.7,5.02,0.00,23.3,22.3,00.0,32.3,25.0,10.1,0000.0,0000.98,0001.71,0000.64
2022-03-12 18:36:00,,0825.7,4.99,0.00,23.3,22.3,00.0,32.3,25.0,10.2,0000.0,0000.97,0001.79,0000.63
2022-03-12 18:37:00,,0825.7,5.01,0.00,23.3,22.4,00.0,32.3,25.1,10.3,0000.0,0000.94,0001.74,0000.63
2022-03-12 18:38:00,,0825.7,5.00,0.00,23.3,22.4,00.0,32.3,25.0,10.4,0000.0,0000.95,0001.79,0000.63
2022-03-12 18:39:00,,0825.7,4.98,0.00,23.3,22.4,00.0,32.3,25.0,10.7,0000.0,0000.95,0002.15,0000.64
2022-03-12 18:40:00,,0825.7,5.02,0.00,23.3,22.4,00.0,32.3,25.0,11.0,0000.0,0000.94,0003.63,0000.63
2022-03-12 18:41:00,,0825.6,4.99,0.00,23.3,22.4,00.0,32.3,25.1,10.4,0000.0,0000.94,0003.62,0000.64
2022-03-12 18:42:00,,0825.6,5.01,0.00,23.4,22.4,00.0,32.3,25.1,10.7,0000.0,0000.96,0003.64,0000.65
2022-03-12 18:43:00,,0825.6,4.99,0.00,23.4,22.4,00.0,32.3,25.1,11.2,0000.0,0000.94,0003.54,0000.66
2022-03-12 18:44:00,,0825.6,5.00,0.00,23.4,22.4,00.0,32.3,25.1,10.3,0000.0,0000.95,0003.49,0000.66
2022-03-12 18:45:00,,0825.5,4.99,0.00,23.4,22.5,00.0,32.3,25.2,10.7,0000.0,0000.98,0003.54,0000.67
2022-03-12 18:46:00,,0825.5,5.01,0.00,23.4,22.5,00.0,32.3,25.1,10.7,0000.0,0000.99,0003.69,0000.67
2022-03-12 18:47:00,,0825.4,5.00,0.00,23.4,22.5,00.0,32.3,25.2,10.4,0000.0,0001.01,0003.90,0000.68
2022-03-12 18:48:00,,0825.4,5.00,0.00,23.4,22.5,00.0,32.3,25.2,10.5,0000.0,0001.07,0004.05,0000.68
2022-03-12 18:49:00,,0825.4,5.00,0.00,23.4,22.5,00.0,32.3,25.1,10.5,0000.0,0001.08,0004.10,0000.68
2022-03-12 18:50:00,,0825.4,5.00,0.00,23.4,22.5,00.0,32.3,25.1,10.5,0000.0,0001.07,0004.03,0000.67
2022-03-12 18:51:00,,0825.3,5.00,0.00,23.4,22.5,00.0,32.3,25.2,11.0,0000.0,0001.09,0002.27,0000.67
2022-03-12 18:52:00,,0825.3,5.00,0.00,23.4,22.5,00.0,32.3,25.2,10.6,0000.0,0001.11,0002.38,0000.67
2022-03-12 18:53:00,,0825.3,4.99,0.00,23.4,22.5,00.0,32.4,25.1,10.7,0000.0,0001.08,0002.33,0000.66
2022-03-12 18:54:00,,0825.3,4.99,0.00,23.4,22.5,00.0,32.4,25.1,10.6,0000.0,0001.04,0002.25,0000.65
2022-03-12 18:55:00,,0825.3,5.01,0.00,23.4,22.5,00.0,32.4,25.1,10.5,0000.0,0001.02,0002.23,0000.65
2022-03-12 18:56:00,,0825.3,5.00,0.00,23.4,22.5,00.0,32.4,25.1,10.7,0000.0,0001.02,0002.24,0000.65
2022-03-12 18:57:00,,0825.3,4.99,0.00,23.4,22.4,00.0,32.4,25.1,10.8,0000.0,0001.01,0002.10,0000.65
2022-03-12 18:58:00,,0825.3,4.99,0.00,23.4,22.4,00.0,32.4,25.0,10.7,0000.0,0000.97,0001.74,0000.64
2022-03-12 18:59:00,,0825.3,5.01,0.00,23.4,22.4,00.0,32.4,25.0,10.9,0000.0,0000.94,0001.62,0000.65
